Terug naar catalogus

PEGASUS DEB

ActiefPO
NORAD 39315·DEBRIS·🇺🇸 United States

Gelanceerd May 19, 1994 vanaf Vandenberg Space Force Base

Loading…

Volgende Passages (komende 24 uur)

TLE

VersSource: Space-Track

Epoch: Sep 14, 2026, 03:44 UTC

1 39315U 94029AFA 26257.15586685  .00000914  00000-0  26719-3 0  9993
2 39315  81.4968 201.4386 0384805 130.5378 232.9986 14.07620473674941

Volg PEGASUS DEB in realtime met AllMySat

Download on the App Store